CCA133 VHHH-ZSAM

Flight info

Callsign CCA133
Flight time N/A
Altitude 27000
Route LEKEN1A LEKEN V601 DOTMI/K0793S1010 A470 TEBON TEBON8X
Aircraft A320/M-SDE3GHIJ2J3J5M1RVWXY/LB2D1

Departure

Time 2026-05-07 12:23
Airport Hong Kong International Airport (VHHH)

Arrival

Time N/A
Airport Xiamen Gaoqi International Airport (ZSAM)
Time Latitude Longitude Altitude Speed Heading
2026-05-07 11:24 22.31125 113.92591 35 ft 0 kts 114°
2026-05-07 12:06 22.31125 113.92590 35 ft 1 kts 114°
2026-05-07 12:07 22.31131 113.92577 35 ft 2 kts 114°
2026-05-07 12:07 22.31137 113.92561 35 ft 2 kts 114°
2026-05-07 12:07 22.31144 113.92546 35 ft 2 kts 114°
2026-05-07 12:07 22.31150 113.92531 35 ft 2 kts 120°
2026-05-07 12:08 22.31160 113.92519 35 ft 2 kts 146°
2026-05-07 12:08 22.31173 113.92512 35 ft 2 kts 168°
2026-05-07 12:08 22.31188 113.92511 35 ft 2 kts 189°
2026-05-07 12:08 22.31198 113.92514 35 ft 0 kts 204°
2026-05-07 12:09 22.31204 113.92517 35 ft 0 kts 206°
2026-05-07 12:11 22.31199 113.92515 35 ft 2 kts 204°
2026-05-07 12:11 22.31165 113.92499 35 ft 7 kts 205°
2026-05-07 12:11 22.31114 113.92472 35 ft 8 kts 206°
2026-05-07 12:11 22.31055 113.92442 35 ft 9 kts 205°
2026-05-07 12:12 22.30989 113.92408 35 ft 11 kts 205°
2026-05-07 12:12 22.30918 113.92370 35 ft 11 kts 207°
2026-05-07 12:12 22.30843 113.92330 35 ft 11 kts 199°
2026-05-07 12:12 22.30762 113.92340 35 ft 12 kts 174°
2026-05-07 12:13 22.30703 113.92294 35 ft 11 kts 249°
2026-05-07 12:13 22.30674 113.92208 35 ft 12 kts 250°
2026-05-07 12:13 22.30645 113.92116 35 ft 13 kts 249°
2026-05-07 12:13 22.30613 113.92020 35 ft 13 kts 250°
2026-05-07 12:14 22.30580 113.91920 35 ft 14 kts 252°
2026-05-07 12:14 22.30548 113.91814 35 ft 15 kts 251°
2026-05-07 12:14 22.30512 113.91702 35 ft 15 kts 250°
2026-05-07 12:14 22.30475 113.91590 35 ft 16 kts 250°
2026-05-07 12:15 22.30437 113.91476 35 ft 16 kts 250°
2026-05-07 12:15 22.30397 113.91357 35 ft 16 kts 254°
2026-05-07 12:15 22.30360 113.91238 35 ft 16 kts 249°
2026-05-07 12:15 22.30342 113.91183 35 ft 0 kts 251°
2026-05-07 12:17 22.30339 113.91176 35 ft 1 kts 252°
2026-05-07 12:17 22.30334 113.91157 35 ft 3 kts 252°
2026-05-07 12:17 22.30325 113.91128 35 ft 4 kts 251°
2026-05-07 12:17 22.30312 113.91088 35 ft 6 kts 251°
2026-05-07 12:18 22.30295 113.91035 35 ft 8 kts 251°
2026-05-07 12:18 22.30272 113.90968 35 ft 10 kts 250°
2026-05-07 12:18 22.30245 113.90887 35 ft 12 kts 253°
2026-05-07 12:18 22.30218 113.90793 35 ft 13 kts 251°
2026-05-07 12:19 22.30184 113.90690 35 ft 15 kts 250°
2026-05-07 12:19 22.30145 113.90578 35 ft 16 kts 252°
2026-05-07 12:19 22.30109 113.90458 35 ft 17 kts 251°
2026-05-07 12:19 22.30068 113.90332 35 ft 18 kts 250°
2026-05-07 12:20 22.30026 113.90199 35 ft 19 kts 252°
2026-05-07 12:20 22.29981 113.90060 35 ft 19 kts 250°
2026-05-07 12:20 22.29935 113.89920 35 ft 19 kts 251°
2026-05-07 12:20 22.29890 113.89780 35 ft 19 kts 251°
2026-05-07 12:21 22.29811 113.89738 35 ft 14 kts 163°
2026-05-07 12:21 22.29747 113.89763 35 ft 8 kts 161°
2026-05-07 12:21 22.29686 113.89786 35 ft 9 kts 160°
2026-05-07 12:21 22.29641 113.89835 35 ft 10 kts 96°
2026-05-07 12:22 22.29657 113.89906 35 ft 4 kts 73°
2026-05-07 12:22 22.29659 113.89916 35 ft 8 kts 73°
2026-05-07 12:22 22.29782 113.90307 35 ft 97 kts 70°
2026-05-07 12:22 22.30091 113.91262 36 ft 167 kts 72°
2026-05-07 12:23 22.30508 113.92515 569 ft 184 kts 73°
2026-05-07 12:23 22.30913 113.93758 1582 ft 177 kts 74°
2026-05-07 12:23 22.31305 113.94991 2449 ft 182 kts 73°
2026-05-07 12:23 22.31727 113.96329 3131 ft 199 kts 72°
2026-05-07 12:24 22.32194 113.97792 3853 ft 211 kts 72°
2026-05-07 12:24 22.32684 113.99316 4468 ft 225 kts 72°
2026-05-07 12:24 22.33214 114.00964 5175 ft 237 kts 71°
2026-05-07 12:24 22.33735 114.02639 6020 ft 240 kts 77°
2026-05-07 12:25 22.33824 114.04445 6822 ft 244 kts 100°
2026-05-07 12:25 22.33262 114.06165 7471 ft 247 kts 122°
2026-05-07 12:25 22.32133 114.07554 7858 ft 248 kts 144°
2026-05-07 12:25 22.30602 114.08472 7979 ft 257 kts 163°
2026-05-07 12:26 22.28839 114.08817 7986 ft 259 kts 180°
2026-05-07 12:26 22.26979 114.08795 8202 ft 275 kts 183°
2026-05-07 12:26 22.25003 114.08737 8756 ft 290 kts 182°
2026-05-07 12:26 22.22964 114.08695 9568 ft 295 kts 182°
2026-05-07 12:27 22.20907 114.08664 10305 ft 301 kts 182°
2026-05-07 12:27 22.18748 114.08698 10773 ft 318 kts 174°
2026-05-07 12:27 22.16592 114.09473 10989 ft 344 kts 151°
2026-05-07 12:27 22.14685 114.11186 11093 ft 369 kts 134°
2026-05-07 12:28 22.12857 114.13229 11796 ft 374 kts 135°
2026-05-07 12:28 22.11058 114.15226 12610 ft 374 kts 135°
2026-05-07 12:28 22.09234 114.17242 13300 ft 378 kts 135°
2026-05-07 12:28 22.07381 114.19289 13824 ft 386 kts 135°
2026-05-07 12:29 22.05474 114.21393 14390 ft 393 kts 135°
2026-05-07 12:29 22.03550 114.23514 14996 ft 397 kts 135°
2026-05-07 12:29 22.01621 114.25640 15538 ft 401 kts 135°
2026-05-07 12:29 21.99677 114.27782 15837 ft 403 kts 135°
2026-05-07 12:30 21.97707 114.29953 15898 ft 403 kts 135°
2026-05-07 12:30 21.95732 114.32129 15901 ft 403 kts 135°
2026-05-07 12:30 21.93781 114.34276 15903 ft 403 kts 135°
2026-05-07 12:30 21.91813 114.36443 15903 ft 403 kts 135°
2026-05-07 12:31 21.89870 114.38582 15903 ft 402 kts 135°
2026-05-07 12:31 21.87912 114.40735 15902 ft 402 kts 135°
2026-05-07 12:31 21.86105 114.43085 15914 ft 409 kts 120°
2026-05-07 12:31 21.85140 114.45950 16361 ft 415 kts 99°
2026-05-07 12:32 21.85059 114.49053 17048 ft 414 kts 85°
2026-05-07 12:32 21.85317 114.52132 17634 ft 416 kts 84°
2026-05-07 12:32 21.85592 114.55231 18137 ft 420 kts 84°
2026-05-07 12:32 21.85860 114.58374 18662 ft 424 kts 84°
2026-05-07 12:33 21.86367 114.64718 19688 ft 430 kts 84°
2026-05-07 12:33 21.86614 114.67918 20184 ft 433 kts 84°
2026-05-07 12:33 21.86862 114.71175 20663 ft 437 kts 84°
2026-05-07 12:34 21.87108 114.74427 21140 ft 440 kts 84°
2026-05-07 12:34 21.87357 114.77722 21602 ft 444 kts 84°
2026-05-07 12:34 21.87605 114.81033 22063 ft 447 kts 84°
2026-05-07 12:34 21.87855 114.84384 22509 ft 451 kts 84°
2026-05-07 12:35 21.88104 114.87727 22970 ft 454 kts 84°
2026-05-07 12:35 21.88346 114.91145 23446 ft 457 kts 85°
2026-05-07 12:35 21.88484 114.94531 23903 ft 459 kts 86°
2026-05-07 12:35 21.88597 114.97966 24331 ft 462 kts 87°
2026-05-07 12:36 21.88704 115.01427 24497 ft 463 kts 87°
2026-05-07 12:36 21.88810 115.04912 24501 ft 463 kts 87°
2026-05-07 12:36 21.88917 115.08375 24503 ft 462 kts 87°
2026-05-07 12:36 21.89024 115.11825 24506 ft 462 kts 86°
2026-05-07 12:37 21.89131 115.15260 24507 ft 462 kts 87°
2026-05-07 12:37 21.89238 115.18729 24513 ft 463 kts 87°
2026-05-07 12:37 21.89343 115.22176 24516 ft 463 kts 86°
2026-05-07 12:37 21.89448 115.25638 24519 ft 463 kts 87°
2026-05-07 12:38 21.89554 115.29099 24521 ft 463 kts 87°
2026-05-07 12:38 21.89659 115.32565 24522 ft 463 kts 87°
2026-05-07 12:38 21.89763 115.36027 24522 ft 463 kts 87°
2026-05-07 12:38 21.89865 115.39448 24522 ft 464 kts 87°
2026-05-07 12:39 21.89967 115.42925 24523 ft 464 kts 87°
2026-05-07 12:39 21.90072 115.46394 24523 ft 463 kts 86°
2026-05-07 12:39 21.90149 115.47553 24518 ft 462 kts 82°